Tracking 30995 objects as of 5-Jul-2025
HD Live streaming from Space Station
objects crossing your sky now

DELTA 1 DEB

Track DELTA 1 DEB now!
10-day predictions


NORAD ID: 39097
Int'l Code: 1973-086HK
Perigee: 1,514.7 km
Apogee: 1,564.3 km
Inclination: 102.4 °
Period: 116.7 minutes
Semi major axis: 7910 km
RCS: 0.0197 m2 (small)
Launch date: November 6, 1973
Source: United States (US)
Launch site: AIR FORCE WESTERN TEST RANGE (AFWTR)

Note: This is SATELLITE DEBRIS
Your satellite tracking list
RASAT
Track 1 satellite(s)




NASA's NSSDC Master Catalog

Two Line Element Set (TLE):
1 39097U 73086HK  25184.53018990 -.00000036  00000-0  77705-4 0  9997
2 39097 102.4143 204.4503 0031356 169.1031 345.9590 12.33944893562006
Source of the keplerian elements: AFSPC